TimeEST,TemperatureF,Dew PointF,Humidity,Sea Level PressureIn,VisibilityMPH,Wind Direction,Wind SpeedMPH,Gust SpeedMPH,PrecipitationIn,Events,Conditions,WindDirDegrees,DateUTC
12:19 AM,17.6,8.6,68,30.32,10.0,NNW,9.2,-,N/A,,Clear,340,2013-01-23 05:19:00
12:58 AM,17.6,8.6,68,30.33,10.0,NNW,4.6,-,N/A,,Clear,340,2013-01-23 05:58:00
1:19 AM,17.6,6.8,63,30.33,10.0,North,5.8,-,N/A,,Clear,350,2013-01-23 06:19:00
1:59 AM,19.4,3.2,49,30.33,10.0,North,4.6,-,N/A,,Clear,360,2013-01-23 06:59:00
2:20 AM,17.6,5.0,58,30.34,10.0,Calm,Calm,-,N/A,,Clear,0,2013-01-23 07:20:00
2:41 AM,17.6,8.6,68,30.35,10.0,Calm,Calm,-,N/A,,Mostly Cloudy,0,2013-01-23 07:41:00
3:01 AM,19.4,6.8,58,30.35,10.0,Calm,Calm,-,N/A,,Overcast,0,2013-01-23 08:01:00
3:17 AM,19.4,6.8,58,30.35,10.0,Calm,Calm,-,N/A,,Overcast,0,2013-01-23 08:17:00
3:37 AM,19.4,10.4,68,30.36,10.0,Calm,Calm,-,N/A,,Overcast,0,2013-01-23 08:37:00
4:44 AM,17.6,8.6,68,30.35,10.0,Calm,Calm,-,N/A,,Scattered Clouds,0,2013-01-23 09:44:00
4:59 AM,15.8,5.0,62,30.35,10.0,Calm,Calm,-,N/A,,Clear,0,2013-01-23 09:59:00
5:17 AM,15.8,6.8,68,30.36,10.0,Calm,Calm,-,N/A,,Clear,0,2013-01-23 10:17:00
5:40 AM,15.8,6.8,68,30.36,10.0,Calm,Calm,-,N/A,,Clear,0,2013-01-23 10:40:00
6:20 AM,14.0,6.8,73,30.37,10.0,Calm,Calm,-,N/A,,Clear,0,2013-01-23 11:20:00
6:37 AM,14.0,6.8,73,30.38,10.0,Calm,Calm,-,N/A,,Clear,0,2013-01-23 11:37:00
8:00 AM,15.8,6.8,68,30.39,10.0,Calm,Calm,-,N/A,,Clear,0,2013-01-23 13:00:00
9:17 AM,26.6,8.6,47,30.39,10.0,North,5.8,-,N/A,,Clear,360,2013-01-23 14:17:00
9:40 AM,30.2,10.4,44,30.40,10.0,WNW,5.8,-,N/A,,Clear,300,2013-01-23 14:40:00
9:59 AM,32.0,12.2,44,30.40,10.0,NW,3.5,-,N/A,,Clear,320,2013-01-23 14:59:00
12:19 PM,35.6,8.6,33,30.33,10.0,WNW,8.1,-,N/A,,Clear,300,2013-01-23 17:19:00
12:37 PM,37.4,6.8,28,30.32,10.0,West,9.2,-,N/A,,Clear,270,2013-01-23 17:37:00
1:17 PM,37.4,-9999,N/A,30.29,10.0,West,10.4,17.3,N/A,,Clear,260,2013-01-23 18:17:00
2:57 PM,39.2,6.8,26,30.26,10.0,WNW,9.2,-,N/A,,Mostly Cloudy,290,2013-01-23 19:57:00
3:17 PM,37.4,5.0,26,30.25,10.0,WNW,4.6,-,N/A,,Overcast,290,2013-01-23 20:17:00
3:37 PM,37.4,6.8,28,30.25,10.0,West,5.8,-,N/A,,Overcast,280,2013-01-23 20:37:00
6:17 PM,33.8,12.2,41,30.23,10.0,Calm,Calm,-,N/A,,Overcast,0,2013-01-23 23:17:00
6:37 PM,32.0,15.8,51,30.23,10.0,Calm,Calm,-,N/A,,Overcast,0,2013-01-23 23:37:00
8:59 PM,30.2,19.4,64,30.18,10.0,Calm,Calm,-,N/A,,Overcast,0,2013-01-24 01:59:00
10:00 PM,32.0,15.8,51,30.16,10.0,SSE,3.5,-,N/A,,Overcast,160,2013-01-24 03:00:00
10:20 PM,30.2,15.8,55,30.15,10.0,Calm,Calm,-,N/A,,Overcast,0,2013-01-24 03:20:00
10:39 PM,30.2,17.6,60,30.14,10.0,Calm,Calm,-,N/A,,Overcast,0,2013-01-24 03:39:00
10:59 PM,28.4,17.6,64,30.13,10.0,Calm,Calm,-,N/A,,Mostly Cloudy,0,2013-01-24 03:59:00